This is the latest recevied weather packets stored in our database for station/object IW3HBX-3. If no packets are shown the sender has not sent any weather packets the latest 10 day(s).
| Time | Temp. | Humidity | Pressure | Rain* | Wind** | Luminosity | Snow |
|---|---|---|---|---|---|---|---|
| 1777676713 | 11.67° C | 62% | 1026.8 hPa | 0 mm | - | 0 W/m² | - |
| 1777676413 | 11.67° C | 61% | 1026.7 hPa | 0 mm | - | 0 W/m² | - |
| 1777676345 | 11.67° C | 58% | 1026.7 hPa | 0 mm | - | 0 W/m² | - |
| 1777676113 | 11.67° C | 59% | 1026.7 hPa | 0 mm | - | 0 W/m² | - |
| 1777675813 | 11.67° C | 60% | 1026.8 hPa | 0 mm | - | 0 W/m² | - |
| 1777675513 | 11.67° C | 61% | 1026.8 hPa | 0 mm | - | 0 W/m² | - |
| 1777675213 | 11.67° C | 59% | 1026.8 hPa | 0 mm | - | 0 W/m² | - |
| 1777674912 | 11.67° C | 59% | 1026.8 hPa | 0 mm | - | 0 W/m² | - |
| 1777674613 | 11.67° C | 58% | 1026.7 hPa | 0 mm | - | 0 W/m² | - |
| 1777674316 | 11.67° C | 58% | 1026.8 hPa | 0 mm | - | 0 W/m² | - |
| 1777674013 | 11.67° C | 59% | 1026.7 hPa | 0 mm | - | 0 W/m² | - |
| 1777673712 | 12.78° C | 57% | 1026.6 hPa | 0 mm | - | 0 W/m² | - |
| 1777673412 | 13.33° C | 56% | 1026.6 hPa | 0 mm | - | 0 W/m² | - |
| 1777673112 | 13.33° C | 53% | 1026.5 hPa | 0 mm | - | 0 W/m² | - |
| 1777672812 | 13.89° C | 52% | 1026.5 hPa | 0 mm | - | 0 W/m² | - |
| 1777672512 | 13.89° C | 51% | 1026.5 hPa | 0 mm | - | 0 W/m² | - |
| 1777672212 | 13.89° C | 52% | 1026.3 hPa | 0 mm | - | 0 W/m² | - |
| 1777671912 | 13.89° C | 53% | 1026.4 hPa | 0 mm | - | 0 W/m² | - |
| 1777671611 | 13.89° C | 52% | 1026.3 hPa | 0 mm | - | 0 W/m² | - |
| 1777671311 | 13.89° C | 49% | 1026.2 hPa | 0 mm | - | 0 W/m² | - |
| 1777671011 | 13.89° C | 50% | 1026.3 hPa | 0 mm | - | 0 W/m² | - |
| 1777670711 | 13.89° C | 52% | 1026.2 hPa | 0 mm | - | 0 W/m² | - |
| 1777670111 | 14.44° C | 53% | 1026.2 hPa | 0 mm | - | 0 W/m² | - |
| 1777669811 | 14.44° C | 50% | 1026.2 hPa | 0 mm | - | 0 W/m² | - |
| 1777669511 | 14.44° C | 49% | 1026.2 hPa | 0 mm | - | 0 W/m² | - |
* Rain latest hour (hover to see other rain measurements)
** Current wind speed in m/s (hover to see current wind gust speed)